Location: Albany
(35.0170°S, 117.8920°E)
Time: 08:31:23
(UTC+08:00)

Courier 1B - Visible Passes

Search period start: 19 May 2021 00:00
Search period end: 29 May 2021 00:00
Orbit: 962 x 1209 km, 28.3° (Epoch: 18 May)

Date Brightness Start Highest point End Pass type
(mag) Time Alt. Az. Time Alt. Az. Time Alt. Az.
19 May 9.9 19:03:47 10° WNW 19:06:55 14° NNW 19:10:02 10° N visible
20 May 9.8 18:08:59 10° WNW 18:13:24 19° NNW 18:17:44 10° NNE visible
22 May 10.3 18:18:05 10° NW 18:19:24 11° NNW 18:20:43 10° NNW visible
